TimeEDT,TemperatureF,Dew PointF,Humidity,Sea Level PressureIn,VisibilityMPH,Wind Direction,Wind SpeedMPH,Gust SpeedMPH,PrecipitationIn,Events,Conditions,WindDirDegrees,DateUTC
12:15 AM,59.0,51.8,77,30.14,10.0,SSW,5.8,-,N/A,,Clear,200,2012-10-25 04:15:00
12:35 AM,60.8,51.8,72,30.14,10.0,SSW,3.5,-,N/A,,Clear,210,2012-10-25 04:35:00
12:55 AM,59.0,51.8,77,30.15,10.0,SSW,3.5,-,N/A,,Clear,210,2012-10-25 04:55:00
1:15 AM,55.4,51.8,88,30.15,10.0,SSW,3.5,-,N/A,,Clear,200,2012-10-25 05:15:00
1:35 AM,59.0,51.8,77,30.15,10.0,SSW,3.5,-,N/A,,Clear,210,2012-10-25 05:35:00
1:55 AM,53.6,50.0,88,30.14,10.0,SW,5.8,-,N/A,,Clear,220,2012-10-25 05:55:00
2:15 AM,57.2,51.8,82,30.14,10.0,SW,4.6,-,N/A,,Clear,220,2012-10-25 06:15:00
2:35 AM,55.4,51.8,88,30.14,10.0,SW,3.5,-,N/A,,Clear,230,2012-10-25 06:35:00
2:55 AM,53.6,51.8,94,30.14,10.0,SSW,4.6,-,N/A,,Clear,210,2012-10-25 06:55:00
3:15 AM,55.4,51.8,88,30.14,10.0,SW,3.5,-,N/A,,Clear,220,2012-10-25 07:15:00
3:35 AM,55.4,51.8,88,30.13,10.0,SW,3.5,-,N/A,,Clear,230,2012-10-25 07:35:00
3:55 AM,53.6,51.8,94,30.13,10.0,SW,4.6,-,N/A,,Clear,230,2012-10-25 07:55:00
4:15 AM,53.6,50.0,88,30.12,10.0,SW,3.5,-,N/A,,Clear,220,2012-10-25 08:15:00
4:35 AM,51.8,50.0,94,30.12,10.0,SW,3.5,-,N/A,,Clear,220,2012-10-25 08:35:00
4:55 AM,53.6,51.8,94,30.12,10.0,SW,3.5,-,N/A,,Clear,220,2012-10-25 08:55:00
5:15 AM,53.6,51.8,94,30.12,10.0,SW,3.5,-,N/A,,Clear,230,2012-10-25 09:15:00
5:35 AM,51.8,50.0,94,30.12,7.0,Calm,Calm,-,N/A,,Clear,0,2012-10-25 09:35:00
5:55 AM,51.8,50.0,94,30.13,10.0,Calm,Calm,-,N/A,,Clear,0,2012-10-25 09:55:00
6:15 AM,51.8,50.0,94,30.13,7.0,Calm,Calm,-,N/A,,Clear,0,2012-10-25 10:15:00
6:35 AM,51.8,50.0,94,30.13,7.0,Calm,Calm,-,N/A,,Clear,0,2012-10-25 10:35:00
6:55 AM,51.8,50.0,94,30.14,3.0,Calm,Calm,-,N/A,,Clear,0,2012-10-25 10:55:00
7:15 AM,51.8,50.0,94,30.14,7.0,Calm,Calm,-,N/A,,Clear,0,2012-10-25 11:15:00
7:35 AM,50.0,50.0,100,30.15,7.0,Calm,Calm,-,N/A,,Clear,0,2012-10-25 11:35:00
8:35 AM,53.6,51.8,94,30.17,7.0,Calm,Calm,-,N/A,,Clear,0,2012-10-25 12:35:00
9:15 AM,60.8,55.4,82,30.18,10.0,Calm,Calm,-,N/A,,Clear,0,2012-10-25 13:15:00
9:35 AM,62.6,55.4,77,30.18,10.0,Calm,Calm,-,N/A,,Clear,0,2012-10-25 13:35:00
9:55 AM,64.4,53.6,68,30.19,10.0,Calm,Calm,-,N/A,,Clear,0,2012-10-25 13:55:00
10:15 AM,68.0,53.6,60,30.19,10.0,Calm,Calm,-,N/A,,Clear,0,2012-10-25 14:15:00
10:35 AM,69.8,53.6,56,30.19,10.0,Calm,Calm,-,N/A,,Clear,0,2012-10-25 14:35:00
10:55 AM,69.8,53.6,56,30.19,10.0,Calm,Calm,-,N/A,,Clear,0,2012-10-25 14:55:00
11:35 AM,73.4,53.6,50,30.18,10.0,Calm,Calm,-,N/A,,Clear,0,2012-10-25 15:35:00
11:55 AM,73.4,53.6,50,30.18,10.0,SSW,3.5,-,N/A,,Clear,200,2012-10-25 15:55:00
12:15 PM,73.4,50.0,44,30.18,10.0,South,5.8,-,N/A,,Clear,180,2012-10-25 16:15:00
12:35 PM,75.2,50.0,41,30.17,10.0,ESE,3.5,-,N/A,,Clear,110,2012-10-25 16:35:00
12:55 PM,75.2,50.0,41,30.16,10.0,East,3.5,-,N/A,,Clear,100,2012-10-25 16:55:00
1:35 PM,77.0,51.8,41,30.15,10.0,SSE,3.5,-,N/A,,Clear,150,2012-10-25 17:35:00
1:55 PM,77.0,51.8,41,30.14,10.0,SE,4.6,-,N/A,,Clear,140,2012-10-25 17:55:00
2:15 PM,77.0,50.0,39,30.13,10.0,SE,5.8,-,N/A,,Clear,130,2012-10-25 18:15:00
2:35 PM,77.0,48.2,36,30.13,10.0,SE,4.6,-,N/A,,Clear,140,2012-10-25 18:35:00
2:55 PM,77.0,50.0,39,30.13,10.0,South,6.9,-,N/A,,Clear,190,2012-10-25 18:55:00
3:15 PM,77.0,48.2,36,30.13,10.0,SE,4.6,-,N/A,,Clear,140,2012-10-25 19:15:00
3:35 PM,78.8,48.2,34,30.12,10.0,Calm,Calm,-,N/A,,Clear,0,2012-10-25 19:35:00
4:15 PM,77.0,50.0,39,30.12,10.0,Calm,Calm,-,N/A,,Clear,0,2012-10-25 20:15:00
4:35 PM,77.0,50.0,39,30.12,10.0,SSE,3.5,-,N/A,,Clear,160,2012-10-25 20:35:00
4:55 PM,77.0,50.0,39,30.12,10.0,East,5.8,-,N/A,,Clear,90,2012-10-25 20:55:00
5:15 PM,77.0,50.0,39,30.12,10.0,SSE,3.5,-,N/A,,Clear,150,2012-10-25 21:15:00
5:35 PM,77.0,51.8,41,30.12,10.0,ESE,3.5,-,N/A,,Clear,120,2012-10-25 21:35:00
5:55 PM,75.2,51.8,44,30.12,10.0,East,3.5,-,N/A,,Clear,100,2012-10-25 21:55:00
6:35 PM,69.8,53.6,56,30.12,10.0,ESE,3.5,-,N/A,,Clear,120,2012-10-25 22:35:00
6:55 PM,69.8,51.8,53,30.13,10.0,Calm,Calm,-,N/A,,Clear,0,2012-10-25 22:55:00
7:15 PM,68.0,53.6,60,30.14,10.0,Calm,Calm,-,N/A,,Clear,0,2012-10-25 23:15:00
7:35 PM,68.0,53.6,60,30.14,10.0,Calm,Calm,-,N/A,,Clear,0,2012-10-25 23:35:00
7:55 PM,68.0,51.8,56,30.14,10.0,Calm,Calm,-,N/A,,Clear,0,2012-10-25 23:55:00
8:15 PM,66.2,51.8,60,30.14,10.0,Calm,Calm,-,N/A,,Clear,0,2012-10-26 00:15:00
8:35 PM,64.4,51.8,64,30.14,10.0,Calm,Calm,-,N/A,,Clear,0,2012-10-26 00:35:00
8:55 PM,64.4,51.8,64,30.14,10.0,Calm,Calm,-,N/A,,Clear,0,2012-10-26 00:55:00
9:15 PM,62.6,51.8,68,30.14,10.0,Calm,Calm,-,N/A,,Clear,0,2012-10-26 01:15:00
9:35 PM,62.6,53.6,72,30.14,10.0,Calm,Calm,-,N/A,,Clear,0,2012-10-26 01:35:00
9:55 PM,60.8,53.6,77,30.14,10.0,Calm,Calm,-,N/A,,Clear,0,2012-10-26 01:55:00
10:15 PM,60.8,51.8,72,30.14,10.0,Calm,Calm,-,N/A,,Clear,0,2012-10-26 02:15:00
10:35 PM,59.0,53.6,82,30.13,10.0,Calm,Calm,-,N/A,,Clear,0,2012-10-26 02:35:00
10:55 PM,55.4,51.8,88,30.13,10.0,ENE,5.8,-,N/A,,Clear,60,2012-10-26 02:55:00
11:55 PM,59.0,55.4,88,30.12,10.0,East,3.5,-,N/A,,Clear,80,2012-10-26 03:55:00